Weather History for Dillon, MT

Change the Weather History Date:

Wednesday, April 17, 2013

  Actual Average Record
Temperature  
Mean Temperature 25 °F 42 °F  
Max Temperature 38 °F 55 °F 77 °F (1987)
Min Temperature 11 °F 29 °F 11 °F (2013)
Degree Days  
Heating Degree Days 40    
Month to date heating degree days 460  
Since 1 July heating degree days 6791  
Cooling Degree Days 0    
Month to date cooling degree days 0  
Year to date cooling degree days 0  
Moisture  
Dew Point 6 °F    
Average Humidity 54    
Maximum Humidity 84    
Minimum Humidity 24    
Precipitation  
Precipitation 0.00 in 0.03 in 0.40 in (2004)
Month to date precipitation 0.11 0.56  
Year to date precipitation 0.51 1.64  
Snow  
Snow 0.00 in - - ()
Snow Depth 0.00 in    
Sea Level Pressure  
Sea Level Pressure 30.31 in    
Wind  
Wind Speed 8 mph (East)    
Max Wind Speed 21 mph    
Max Gust Speed 29 mph    
Visibility 10 miles    
Events      
T = Trace of Precipitation, MM = Missing Value Source: NWS Daily Summary

Daily Weather History Graph

Daily Weather History Graph

Search for Another Location

Airport:

Trip Planner

Search our weather history database for the weather conditions in past years. The results will help you decide how hot, cold, wet, or windy it might be!

Date:

Astronomy

Apr. 17, 2013 Rise Set
Actual Time 6:41 AM MDT 8:19 PM MDT
Civil Twilight 6:10 AM MDT 8:50 PM MDT
Nautical Twilight 5:32 AM MDT 9:28 PM MDT
Astronomical Twilight 4:51 AM MDT 10:08 PM MDT
Moon 11:53 AM MDT (4/17) 2:05 AM MDT (4/17)
Length of Visible Light 14h 40m
Length of Day
13h 38m
Waxing Crescent, 43% of the Moon is Illuminated
Apr 17
Waxing Crescent
Apr 18
First Quarter
Apr 25
Full
May 2
Last Quarter
May 9
New

Hourly Weather History & Observations

Time (MDT) Temp. Windchill Dew Point Humidity Pressure Visibility Wind Dir Wind Speed Gust Speed Precip Events Conditions
12:53 AM 17.1 °F 5.8 °F 8.1 °F 68% 30.29 in 10.0 mi ENE 9.2 mph - N/A   Clear
1:53 AM 12.9 °F 0.7 °F 6.1 °F 74% 30.31 in 10.0 mi ESE 9.2 mph - N/A   Clear
2:53 AM 12.9 °F 3.8 °F 7.0 °F 77% 30.31 in 10.0 mi ESE 5.8 mph - N/A   Clear
3:53 AM 12.9 °F 3.8 °F 8.1 °F 81% 30.30 in 10.0 mi ESE 5.8 mph - N/A   Partly Cloudy
4:53 AM 12.9 °F 5.2 °F 8.1 °F 81% 30.32 in 10.0 mi ESE 4.6 mph - N/A   Mostly Cloudy
5:53 AM 14.0 °F 5.1 °F 9.0 °F 80% 30.33 in 10.0 mi ESE 5.8 mph - N/A   Mostly Cloudy
6:40 AM 12.2 °F 2.9 °F 8.6 °F 85% 30.18 in 10.0 mi ESE 5.8 mph - N/A   Mostly Cloudy
6:53 AM 12.9 °F 3.8 °F 8.1 °F 81% 30.33 in 10.0 mi ESE 5.8 mph - N/A   Mostly Cloudy
7:00 AM 12.2 °F 4.3 °F 8.6 °F 85% 30.18 in 10.0 mi East 4.6 mph - N/A   Scattered Clouds
8:53 AM 21.0 °F - 10.0 °F 63% 30.36 in 10.0 mi Calm Calm - N/A   Clear
9:53 AM 24.1 °F 17.0 °F 9.0 °F 53% 30.34 in 10.0 mi Variable 5.8 mph - N/A   Partly Cloudy
10:53 AM 26.1 °F 17.6 °F 8.1 °F 47% 30.34 in 10.0 mi ENE 8.1 mph - N/A   Partly Cloudy
11:53 AM 30.0 °F 24.1 °F 7.0 °F 38% 30.33 in 10.0 mi Variable 5.8 mph - N/A   Overcast
12:53 PM 30.0 °F 20.0 °F 6.1 °F 36% 30.32 in 10.0 mi North 12.7 mph 18.4 mph N/A   Overcast
1:53 PM 33.1 °F 26.9 °F 6.1 °F 32% 30.32 in 10.0 mi Variable 6.9 mph 17.3 mph N/A   Clear
2:53 PM 35.1 °F 25.5 °F 5.0 °F 28% 30.31 in 10.0 mi NNE 15.0 mph - N/A   Mostly Cloudy
3:53 PM 37.0 °F 30.4 °F 3.9 °F 25% 30.29 in 10.0 mi North 9.2 mph 19.6 mph N/A   Mostly Cloudy
4:53 PM 37.0 °F 28.1 °F 6.1 °F 28% 30.29 in 10.0 mi NE 15.0 mph 19.6 mph N/A   Mostly Cloudy
5:53 PM 37.0 °F 27.4 °F 6.1 °F 28% 30.28 in 10.0 mi NE 17.3 mph 23.0 mph N/A   Clear
6:53 PM 35.1 °F 25.5 °F 5.0 °F 28% 30.30 in 10.0 mi NE 15.0 mph - N/A   Clear
7:53 PM 32.0 °F 22.5 °F 3.9 °F 31% 30.32 in 10.0 mi ENE 12.7 mph - N/A   Clear
8:53 PM 28.0 °F - 3.0 °F 34% 30.32 in 10.0 mi Calm Calm - N/A   Clear
9:53 PM 26.1 °F 20.5 °F 3.9 °F 39% 30.33 in 10.0 mi SW 4.6 mph - N/A   Clear
10:53 PM 19.0 °F 11.1 °F 1.0 °F 46% 30.36 in 10.0 mi South 5.8 mph - N/A   Clear
11:53 PM 23.0 °F 13.9 °F 5.0 °F 46% 30.31 in 10.0 mi South 8.1 mph - N/A   Clear